Simultaneous Nadir Overpasses (SNOs) Predictions

Prediction of SNOs between METOP-B and TERRA Satellite Orbit:

Table of predicted SNOs for the next 14.0 days since TLE Epoch: 5/5/2017
Index Date (METOP-B) Time (METOP-B) Lat,Lon (METOP-B) SZA (METOP-B ) Date (TERRA) Time (TERRA) Lat,Lon (TERRA) SZA (TERRA ) Distance(km) Time Diff (sec)
1 05/07/2017 01:18:18 -81.30, 26.54 112.67 05/07/2017 01:19:32 -81.26, 26.63 112.65 5.40 74
2 05/07/2017 02:08:54 81.33,-164.42 67.54 05/07/2017 02:08:55 81.32,-164.50 67.53 1.42 1
3 05/07/2017 02:59:34 -81.34, 3.38 112.42 05/07/2017 02:58:21 -81.34, 3.45 112.44 1.24 73
4 05/09/2017 20:52:36 -81.32, 94.02 113.28 05/09/2017 20:53:43 -81.32, 94.16 113.24 2.27 67
5 05/09/2017 21:43:15 81.33, -98.14 66.78 05/09/2017 21:43:09 81.32, -98.13 66.77 0.75 6
6 05/12/2017 16:26:57 -81.33, 160.77 113.95 05/12/2017 16:27:57 -81.33, 160.79 113.92 0.27 60
7 05/12/2017 17:17:36 81.33, -31.40 66.11 05/12/2017 17:17:23 81.33, -31.52 66.08 2.07 13
8 05/15/2017 12:01:19 -81.33,-132.81 114.62 05/15/2017 12:02:11 -81.33,-132.73 114.59 1.42 52
9 05/15/2017 12:51:58 81.33, 35.00 65.43 05/15/2017 12:51:37 81.33, 34.93 65.41 1.06 21
10 05/18/2017 07:35:41 -81.33, -66.35 115.25 05/18/2017 07:36:25 -81.32, -66.40 115.24 0.91 44




NCC Satellite Simultaneous Nadir Overpasses (SNOs) Prediction Service
